Regional Weather Roundup
Issued by NWS

Home | Current Version | Previous Version | Graphics & Text | Print | Product List | Glossary On
Versions: 1 2 3 4 5 6 7 8 9 10 11 12 13 14 15 16 17 18 19 20 21 22 23 24 25 26 27 28 29 30 31 32 33 34 35 36 37 38 39 40 41 42 43 44 45 46 47 48 49 50
000
ASUS45 KBOU 271707
RWRCO

WEATHER ROUNDUP FOR COLORADO
NATIONAL WEATHER SERVICE DENVER/BOULDER CO
1100 AM MDT THU JUL 27 2017

NOTE: "FAIR" INDICATES FEW OR NO CLOUDS BELOW 12000 FEET WITH NO
SIGNIFICANT WEATHER AND/OR OBSTRUCTIONS TO VISIBILITY.

COZ001>005-013-030-031-271800-
...NORTHWEST COLORADO...

CITY           SKY/WX    TMP DP  RH WIND       PRES   REMARKS
CRAIG          FAIR      78  58  49 CALM      30.30F
HAYDEN         FAIR      73  52  46 E3        30.32F
MEEKER         FAIR      76  57  51 MISG      30.30F
RABBIT EARS PA FAIR      57  50  77 W5        30.62S
STEAMBOAT SPGS FAIR      73  55  53 W3        30.34S
WALDEN         FAIR      68  52  56 SE3       30.44S
$$

COZ006>008-011-271800-
...WEST CENTRAL VALLEYS...

CITY           SKY/WX    TMP DP  RH WIND       PRES   REMARKS
GRAND JUNCTION FAIR      84  58  40 S7        30.19S
MONTROSE       FAIR      78  56  46 VRB3      30.26F
EAGLE          SUNNY     79  55  44 CALM      30.34F
RIFLE          FAIR      79  57  46 CALM      30.24F
DELTA          FAIR      82  56  40 CALM      30.23F
NUCLA          NOT AVBL
$$

COZ017>023-064>068-271800-
...SOUTHWEST COLORADO...

CITY           SKY/WX    TMP DP  RH WIND       PRES   REMARKS
DURANGO        FAIR      79  51  37 NE5       30.31F
CORTEZ         FAIR      83  54  36 VRB3      30.25F
PAGOSA SPRINGS FAIR      75  48  38 SW5       30.40F
TELLURIDE      FAIR      71  46  39 W3        30.51S
WOLF CREEK PAS FAIR      59  50  72 SW5       30.76F
$$

COZ009-010-012-014-032>034-037-058>063-271800-
...CENTRAL COLORADO...

CITY           SKY/WX    TMP DP  RH WIND       PRES   REMARKS
ASPEN          FAIR      76  51  41 NW6       30.39F
BUENA VISTA    FAIR      68  52  56 CALM      30.42F
COPPER MTN     FAIR      61  41  48 NW5       30.72F
BERTHOUD PASS  PTSUNNY   52  41  66 NW6       30.76R
COTTONWOOD PAS FAIR      68  50  52 E5        30.56F
GUNNISON       FAIR      73  53  49 CALM      30.41F
KREMMLING      FAIR      68  57  68 CALM      30.41F
LEADVILLE      FAIR      64  44  48 VRB3      30.51F
MONARCH PASS   FAIR      55  45  67 W12G17    30.82F
SALIDA         FAIR      73  54  50 N5        30.45F
SUNLIGHT       FAIR      59  48  67 W5        30.67S
WILKERSON PASS FAIR      57  43  58 CALM      30.69S
$$

COZ069>075-271800-
...SAN LUIS VALLEY/SANGRE DE CRISTO MOUNTAINS...

CITY           SKY/WX    TMP DP  RH WIND       PRES   REMARKS
ALAMOSA        FAIR      71  56  58 CALM      30.39F
DEL NORTE      FAIR      73  51  46 E3        30.42F
LA VETA PASS   NOT AVBL
SAGUACHE         N/A    N/A N/A N/A MISG        N/A
$$

COZ035-036-038>040-271800-
...NORTHERN COLORADO FRONT RANGE...

CITY           SKY/WX    TMP DP  RH WIND       PRES   REMARKS
DENVER INTL AP FAIR      77  60  55 SE10      30.25F
DMNS CITY PARK   N/A     75  60  59 E3G14     30.25F
AURORA         MOSUNNY   74  59  58 NW3       30.27S
FRONT RANGE AP FAIR      77  59  53 SE6       30.28S
ERIE MUNI ARPT FAIR      75  62  63 NW5       30.25F
BOULDER MUN AP FAIR      73  61  64 NE3       30.26F HAZE
CENTENNIAL     FAIR      75  60  59 NW3       30.28S
BROOMFIELD     FAIR      72  59  64 CALM      30.28F
FORT COLLINS   PTSUNNY   75  62  64 SE5       30.26F
LONGMONT       FAIR      78  61  56 CALM      30.26F
$$

COZ041-046-047-076>085-087-088-271800-
...PIKES PEAK/PALMER DIVIDE AND SOUTHERN FOOTHILLS...

CITY           SKY/WX    TMP DP  RH WIND       PRES   REMARKS
COLO. SPRINGS  PTSUNNY   70  61  73 SE8       30.33S
A. F. ACADEMY  PTSUNNY   69  58  69 S6        30.33S
SCHRIEVER AFB  PTSUNNY   69  60  70 S14G21    30.33S
CHEYENNE MTN   PTSUNNY   65  58  79 SE6       30.31S
ELLICOTT       FAIR     N/A N/A N/A S12       30.31S
FALCON           N/A     68  57  67 S12G20    30.38S
FORT CARSON    MOSUNNY   70  61  73 SE3       30.29F
LIMON          PTSUNNY   70  63  78 SE9       30.28S
MONUMENT HILL  FAIR      68  55  64 S6        30.38R
CANON CITY     SUNNY     75  63  64 E7        30.26F
WALSENBURG     FAIR      79  57  47 E5        30.29F
TRINIDAD       FAIR      72  56  57 S6        30.29F
$$

COZ042>045-048>051-090-091-271800-
...NORTHEAST COLORADO...

CITY           SKY/WX    TMP DP  RH WIND       PRES   REMARKS
GREELEY ARPT   FAIR      74  64  71 NE3       30.24F
AKRON          CLOUDY    75  61  61 SE12      30.25S
BURLINGTON     CLOUDY    73  65  75 SE12      30.23F
WRAY           NOT AVBL
YUMA           FAIR      73  57  56 SE9       30.22S
STERLING       CLOUDY    77  63  61 S9        30.20F
HOLYOKE        PTSUNNY   73  68  83 SE9       30.22S
FORT MORGAN    FAIR      81  59  47 SE8       30.24F
$$

COZ086-089-092>099-271800-
...SOUTHEAST COLORADO...

CITY           SKY/WX    TMP DP  RH WIND       PRES   REMARKS
PUEBLO         FAIR      76  63  64 VRB7      30.23S
LA JUNTA       PTSUNNY   75  65  70 SE3       30.22S
LAMAR          PTSUNNY   75  68  78 NE7       30.18R
SPRINGFIELD      N/A     74  66  76 NE7       30.21F
$$



USA.gov is the U.S. government's official web portal to all federal, state and local government web resources and services.